User: anonymous   Login
Location: Mohawk View
(42.7837°N, 73.7885°W)
Time: 08:18:04
(UTC+00:00)
Language:

ARGOS Delta rocket - Orbit

View from above orbital plane
View from above orbital plane
View from above satellite
View from above satellite

Ground track
Ground track

The orbit data is extracted from the following two-line orbital elements,

1 25637U 99008D   21266.20378498  .00000113  00000-0  35360-4 0  9993
2 25637  96.4812 180.3702 0142475   0.6498 157.0814 14.46743461191003
Epoch (UTC): 23 September 2021 04:53:27
Eccentricity: 0.0142475
inclination: 96.4812°
perigee height: 635 km
apogee height: 837 km
right ascension of ascending node: 180.3702°
argument of perigee: 0.6498°
revolutions per day: 14.46743461
mean anomaly at epoch: 157.0814°
orbit number at epoch: 19100

The dashed part of the orbit path shows where the satellite is in the earth's shadow,  

DLR